Retour au catalogue

STARLINK-36684

ActifCommunicationsVLEO
NORAD 68718·PAYLOAD·🇺🇸 United States

Lancé Apr 14, 2026 depuis Cape Canaveral Space Force Station

Loading…

Prochains Passages (prochaines 24 heures)

TLE

FraisSource: CelesTrak SupGP

Époque: Sep 14, 2026, 14:52 UTC

1 68718C 26081V   26257.61993056 -.00023897  00000+0 -70626-3 0  2579
2 68718  53.1585 233.1055 0001396  92.4432  31.0558 15.34391981    18

Suivez STARLINK-36684 en temps réel avec AllMySat

Download on the App Store